Regional Weather Roundup
Issued by NWS Mobile, AL

Home | Current Version | Previous Version | Text Only | Print | Product List | Glossary On
Versions: 1 2 3 4 5 6 7 8 9 10 11 12 13 14 15 16 17 18 19 20 21 22 23 24 25 26 27 28 29 30 31 32 33 34 35 36 37 38 39 40 41 42 43 44 45 46 47 48 49 50
000
ASUS44 KMOB 040517
RWRMOB
REGIONAL WEATHER ROUNDUP
NATIONAL WEATHER SERVICE MOBILE AL
1200 AM CDT MON MAY 04 2015

ALZ061>064-040600-
COASTAL ALABAMA


CITY           SKY/WX    TMP DP  RH WIND       PRES   REMARKS
MOBILE REG APT CLEAR     63  61  93 NE6       30.16S
BROOKLEY FIELD CLEAR     70  65  84 E8        30.16F
GULF SHORES    CLEAR     70  63  77 SE7       30.15S

$$

ALZ051>060-040600-
INTERIOR SOUTHWEST AND SOUTH CENTRAL ALABAMA


CITY           SKY/WX    TMP DP  RH WIND       PRES   REMARKS
ANDALUSIA/OPP  CLEAR     64  58  80 CALM      30.18S
EVERGREEN      CLEAR     59  56  89 CALM      30.18S
FLORALA        CLEAR     64  61  90 CALM      30.19S
GREENVILLE     FAIR      61  55  81 CALM      30.18R

$$

FLZ001>006-040600-
WESTERN FLORIDA PANHANDLE


CITY           SKY/WX    TMP DP  RH WIND       PRES   REMARKS
CRESTVIEW      CLEAR     59  57  93 CALM      30.18F
DESTIN         CLEAR     69  62  78 CALM      30.16S
DUKE FIELD     NOT AVBL
MARY ESTHER    CLEAR     70  62  75 N5        30.15S
MILTON         CLEAR     65  60  84 CALM      30.17S
PENSACOLA      CLEAR     70  62  76 S9        30.15F
NAS PENSACOLA  CLEAR     72  63  73 SE9       30.15S
VALPARAISO     PTCLDY    67  62  84 NE2       30.16F

$$

...MARINE OBSERVATIONS...

STATION/POSITION TIME  SKY/WX   TEMP    WIND        PRES    VSBY
                                AIR SEA DIR/SP/G
                 (UTC)          (F)     (DEG/KT/KT) (MB)    (MI)
PASCAGOULA       0400            72     110/  3/  5 1020.5R
PETIT BOIS ISL   0400            72      90/  5/  7 1020.9S
E DAUPHIN ISLAND 0500            74     140/ 16/ 17 1020.2F
MIDDLE BAY LIGHT 0400            71     100/  9     1020.3R
USCG MOBILE BAY  0412            70 72   90/  4/  6 1020.1R
STATE DOCKS      0412            69 69              1020.9R
MEAHER PARK      0500            68     100/  3     1021.3R
FORT MORGAN      0412            74     150/ 18/ 20 1020.3R
12 S ORANGE BCH  0450            74 75  140/ 14/ 16 1020.0F
WVE H/P(F/S)=  3/ 5

PENSACOLA BAY    0400            76 77  160/  6/ 10 1021.5R
64 S DAUPHIN ISL 0450            75 75  130/ 21/ 23 1020.2F
WVE H/P(F/S)=  4/ 5

67 S FORT MORGAN 0430            74                 1020.0F
115 SE PENSACOLA 0450            74 75  110/ 12/ 14 1020.5F
WVE H/P(F/S)=  4/ 7

MID GULF/42001   0450            76 79   80/ 10/ 14 1018.4F
WVE H/P(F/S)=  2/ 4

EAST GULF/42003  0450            78 80   90/ 14/ 17 1018.8F
WVE H/P(F/S)=  6/ 8


$$

...NEARBY LOCATIONS

CITY           SKY/WX    TMP DP  RH WIND       PRES   REMARKS
GULFPORT       CLEAR     70  63  78 SE7       30.13S
BILOXI         CLEAR     68  64  88 E3        30.13F
PASCAGOULA     PTCLDY    62  61  96 CALM      30.14F
HATTIESBURG    CLEAR     60  54  80 CALM      30.16S
LAUREL         CLEAR     57  50  77 CALM      30.16S
MERIDIAN       CLEAR     59  54  83 S7        30.15S
MERIDIAN NAS   CLEAR     62  53  72 SE3       30.15R
MONTGOMERY     PTCLDY    62  57  83 CALM      30.17S
MAXWELL AFB    PTCLDY    61  59  91 SW1       30.16R
TROY           PTCLDY    60  56  86 CALM      30.19R
FORT RUCKER    PTCLDY    61  57  87 CALM      30.17S
DALEVILLE      MOCLDY    65  59  82 CALM      30.18S
DOTHAN         MOCLDY    67  60  78 W3        30.22R

$$

...OTHER SURROUNDING LOCATIONS...

CITY           SKY/WX    TMP DP  RH WIND       PRES   REMARKS
BIRMINGHAM     PTCLDY    61  54  77 CALM      30.19S
TUSCALOOSA     CLEAR     59  55  87 CALM      30.15S
COLUMBUS GA    PTCLDY    65  53  65 CALM      30.19R
PANAMA CITY    NOT AVBL
TALLAHASSEE    CLEAR     61  55  81 CALM      30.19R
BATON ROUGE    CLEAR     64  58  80 E7        30.11F
NEW ORLEANS    PTCLDY    68  56  65 CALM      30.12F
SLIDELL        CLEAR     59  58  96 N3        30.12F
JACKSON        CLEAR     64  52  64 S5        30.12S
MCCOMB         CLEAR     61  53  75 SE5       30.13F

$$

...SURROUNDING MARINE OBSERVATIONS...

STATION/POSITION TIME  SKY/WX   TEMP    WIND        PRES    VSBY
                                AIR SEA DIR/SP/G
                 (UTC)          (F)     (DEG/KT/KT) (MB)    (MI)
WAVELAND         0400            72 74  130/ 10/ 13 1020.3R
PASCAGOULA RGN A 0412            73     120/  8/ 11 1020.1S
PASCAGOULA PORT  0400               77                N/A
GRAND ISLE       0412            73 79  130/  7/ 11 1019.6S
SOUTHWEST PASS   0500            70      40/  8/  9 1019.4F
PILOT STATION E  0412            71 66   40/  7/  8 1020.0S
SHELL BEACH      0400            71 76  110/  5/  6 1019.6R
PANAMA CITY      0412            71 77   CALM  /  1 1020.9R
APALACHICOLA     0412            66 71  340/  3/  6 1021.1R
TYNDALL TOWER C  0500            73      60/  5/  6 1021.0F
S APLCHCLA/42036 0450            74 74   50/ 16/ 19 1020.3F
WVE H/P(F/S)=  3/ 6


$$



USA.gov is the U.S. government's official web portal to all federal, state and local government web resources and services.